TimeEST,TemperatureF,Dew PointF,Humidity,Sea Level PressureIn,VisibilityMPH,Wind Direction,Wind SpeedMPH,Gust SpeedMPH,PrecipitationIn,Events,Conditions,WindDirDegrees,DateUTC
12:54 AM,35.1,28.9,78,29.77,10.0,West,8.1,-,N/A,,Scattered Clouds,260,2012-12-19 05:54:00
1:54 AM,34.0,28.0,79,29.78,10.0,WSW,8.1,-,N/A,,Scattered Clouds,250,2012-12-19 06:54:00
2:54 AM,35.1,28.9,78,29.79,10.0,West,9.2,-,N/A,,Mostly Cloudy,260,2012-12-19 07:54:00
3:54 AM,34.0,28.9,82,29.81,10.0,WNW,6.9,-,N/A,,Mostly Cloudy,290,2012-12-19 08:54:00
4:54 AM,35.1,28.9,78,29.82,10.0,WNW,6.9,-,N/A,,Mostly Cloudy,300,2012-12-19 09:54:00
5:54 AM,35.1,30.0,82,29.84,10.0,WNW,4.6,-,N/A,,Mostly Cloudy,290,2012-12-19 10:54:00
6:54 AM,34.0,28.9,82,29.86,10.0,West,3.5,-,N/A,,Mostly Cloudy,260,2012-12-19 11:54:00
7:54 AM,35.1,30.0,82,29.89,9.0,West,5.8,-,N/A,,Mostly Cloudy,260,2012-12-19 12:54:00
8:54 AM,37.0,30.0,76,29.92,10.0,NW,5.8,-,N/A,,Mostly Cloudy,310,2012-12-19 13:54:00
9:54 AM,37.0,32.0,82,29.95,9.0,WNW,4.6,-,N/A,,Mostly Cloudy,290,2012-12-19 14:54:00
10:54 AM,39.0,30.0,70,29.96,10.0,WNW,3.5,-,N/A,,Overcast,290,2012-12-19 15:54:00
11:54 AM,39.9,28.9,65,29.98,10.0,West,6.9,-,N/A,,Overcast,280,2012-12-19 16:54:00
12:54 PM,39.9,28.9,65,29.99,10.0,West,6.9,-,N/A,,Mostly Cloudy,260,2012-12-19 17:54:00
1:54 PM,41.0,28.0,60,30.02,10.0,West,10.4,-,N/A,,Overcast,280,2012-12-19 18:54:00
2:54 PM,39.9,27.0,60,30.04,10.0,West,9.2,-,N/A,,Mostly Cloudy,270,2012-12-19 19:54:00
3:54 PM,39.9,28.9,65,30.06,10.0,WNW,8.1,-,N/A,,Mostly Cloudy,290,2012-12-19 20:54:00
4:54 PM,39.9,30.0,68,30.09,10.0,West,5.8,-,N/A,,Mostly Cloudy,270,2012-12-19 21:54:00
5:54 PM,39.0,30.9,73,30.11,10.0,West,6.9,-,N/A,,Mostly Cloudy,270,2012-12-19 22:54:00
6:54 PM,39.0,30.9,73,30.13,10.0,WSW,4.6,-,N/A,,Mostly Cloudy,250,2012-12-19 23:54:00
7:54 PM,37.9,30.9,76,30.15,10.0,WSW,3.5,-,N/A,,Mostly Cloudy,240,2012-12-20 00:54:00
8:50 PM,37.4,28.4,70,30.15,10.0,NE,4.6,-,N/A,,Overcast,40,2012-12-20 01:50:00
8:54 PM,37.9,28.9,70,30.17,10.0,NE,4.6,-,N/A,,Overcast,50,2012-12-20 01:54:00
9:06 PM,37.4,30.2,75,30.15,10.0,ENE,5.8,-,N/A,,Mostly Cloudy,60,2012-12-20 02:06:00
9:54 PM,36.0,28.0,73,30.18,10.0,NE,3.5,-,N/A,,Mostly Cloudy,50,2012-12-20 02:54:00
10:54 PM,36.0,28.0,73,30.19,10.0,East,5.8,-,N/A,,Mostly Cloudy,100,2012-12-20 03:54:00
11:54 PM,34.0,27.0,75,30.17,10.0,East,5.8,-,N/A,,Scattered Clouds,80,2012-12-20 04:54:00